Showing default

GLOBALSTAR M048, 25872

Orbit data source: Space-Track

GLOBALSTAR M048, 25872 is a payload satellite owned by Globalstar (US) in LEO that was launched on Sun, 25 Jul 1999 UTC via a DELTA 7420-10C launch vehicle from the Air Force Eastern Test Range (AFETR). Payload-class satellites include a variety of spacecraft equipped with specific instruments for various scientific and technological missions. These include communications satellites like Starlink; space stations such as the ISS; scientific satellites like the Hubble; Earth observation satellites from companies like Planet Labs, Umbra, and HawkEye 360; GPS; miniature CubeSats for education and research; and military/defense satellites.

Loading next visibility...
Identifier
25872, 1999-041A
Orbit
LEO
Country
Flag of USUS / GLOB
Related business
Manufacturer
SS/Loral
Mission
Non-operational Commercial Communications
Bus & Motor
LS-400, LS-400 AOCS
Mass
450 kg wet, 380 kg dry
Launch date (UTC)
1999-07-25 (27 years ago)
Launch vehicle
DELTA 7420-10C
Launch site
Air Force Eastern Test Range (AFETR)
Object type
Payload
Rocket body
Debris
Shape & HBR
Box + 2 Pan, 6.0 m
Radar Cross Section
5.587 m², Large (>1 m²)

Expand to show TLE details & history
Last TLE update: 19 hours ago

TLE from 19 hours ago
0 GLOBALSTAR M048
1 25872U 99041A   26121.79138796 -.00000065  00000-0  12688-3 0  9999
2 25872  51.9381 299.6473 0013154  20.5820 352.2933 11.33863665161124
Epoch: 2026-05-01T18:59Z
TLE epoch observation values (Epoch: 2026-05-01T18:59:35.919Z)
Latitude
10.07692°
Longitude
162.99055°
Altitude
1,980.258 km
Speed
6.913 km/s
True Right ascension
20h 30m 26s
True Declination
10° 01' 35"
Sunlit
Object was in daylight at epoch
Visualization orbit readout
Latitude
Unknown
Longitude
Unknown
Altitude
Unknown
Speed
Unknown
Apparent Right ascension
Unknown
Apparent Declination
Unknown
Sunlit
N/A
Visualization observer readout
Local Sidereal Time
21:46:02
Azimuth
Unknown
Elevation
Unknown
Doppler factor
Unknown
Orbital elements
Apogee altitude
2,002.652 km
Perigee altitude
1,980.633 km
Semi-major axis
8,369.78 km
Eccentricity
0.00132
Inclination
51.9381°
RAAN
299.6473°
Arg. of periapsis
20.582°
True anomaly
352.27305°
Mean anomaly
352.2933°
Eccentric anomaly
352.28318°
Mean motion
2.83447 °/min
Orbital period
127.01 mins
BSTAR
0.00012688
Loading maneuver chart data...
Computing Atmospheric mass density...
Loading historical data...
Loading historical data...
Loading historical data...
Loading historical data...
Loading historical data...
Loading historical data...
Loading historical data...
Other satellites on launch #41 in the year 1999 (1999-07-25 UTC)

Documentation

Showing up to 5 results
|